This is the latest recevied weather packets stored in our database for station/object K5WNG. If no packets are shown the sender has not sent any weather packets the latest 10 day(s).
| Time | Temp. | Humidity | Pressure | Rain* | Wind** | Luminosity | Snow |
|---|---|---|---|---|---|---|---|
| 1778185817 | 18.33° C | 69% | 1016.4 hPa | 0 mm | - | 323 W/m² | - |
| 1778185521 | 18.33° C | 70% | 1016.6 hPa | 0 mm | - | 277 W/m² | - |
| 1778185220 | 18.89° C | 69% | 1016.4 hPa | 0 mm | - | 251 W/m² | - |
| 1778184919 | 18.89° C | 69% | 1016.6 hPa | 0 mm | - | 265 W/m² | - |
| 1778184616 | 18.89° C | 68% | 1016.5 hPa | 0 mm | - | 300 W/m² | - |
| 1778184317 | 18.89° C | 68% | 1016.7 hPa | 0 mm | - | 413 W/m² | - |
| 1778184021 | 18.33° C | 69% | 1016.6 hPa | 0 mm | - | 580 W/m² | - |
| 1778183719 | 17.78° C | 71% | 1016.6 hPa | 0 mm | - | 360 W/m² | - |
| 1778183417 | 17.78° C | 70% | 1016.5 hPa | 0 mm | - | 327 W/m² | - |
| 1778183117 | 17.78° C | 70% | 1016.7 hPa | 0 mm | - | 341 W/m² | - |
| 1778182817 | 18.33° C | 70% | 1017 hPa | 0 mm | - | 336 W/m² | - |
| 1778182517 | 18.33° C | 70% | 1017 hPa | 0 mm | - | 353 W/m² | - |
| 1778182220 | 17.78° C | 71% | 1017 hPa | 0 mm | - | 346 W/m² | - |
| 1778181920 | 17.78° C | 71% | 1017.1 hPa | 0 mm | - | 345 W/m² | - |
| 1778181617 | 17.78° C | 71% | 1017.1 hPa | 0 mm | - | 335 W/m² | - |
| 1778181317 | 17.78° C | 71% | 1017.2 hPa | 0 mm | - | 348 W/m² | - |
| 1778181021 | 17.78° C | 72% | 1017.1 hPa | 0 mm | - | 274 W/m² | - |
| 1778180721 | 17.78° C | 72% | 1017.1 hPa | 0 mm | - | 225 W/m² | - |
| 1778180422 | 17.78° C | 72% | 1017.2 hPa | 0 mm | - | 188 W/m² | - |
| 1778180117 | 17.78° C | 72% | 1017.1 hPa | 0 mm | - | 234 W/m² | - |
| 1778179821 | 17.78° C | 72% | 1017.1 hPa | 0 mm | - | 283 W/m² | - |
| 1778179521 | 17.78° C | 73% | 1017 hPa | 0 mm | - | 237 W/m² | - |
| 1778179221 | 17.78° C | 73% | 1017.1 hPa | 0 mm | - | 243 W/m² | - |
| 1778178918 | 17.78° C | 72% | 1017.3 hPa | 0 mm | - | 335 W/m² | - |
| 1778178615 | 17.78° C | 73% | 1017.4 hPa | 0 mm | - | 371 W/m² | - |
* Rain latest hour (hover to see other rain measurements)
** Current wind speed in m/s (hover to see current wind gust speed)